When you browse on this site, cookies collect data to enhance your experience and personalize the content and advertising you see.
Visit our Privacy Policy to learn more. By continuing to use the site, you agree to this use of cookies and data.
  • In United Kingdom
  • List of Countries
  • For 7 days
  • Water Temperature
  • Satellite Maps
  • Weather Map
  • Weather Widgets
  • user-avatar
    Login

    Hourly Weather Khujayli

    Today, 23 March, Saturday

    Time Temperature Precipitation Wind Pressure Humidity
    00:00 +13°C° 0 mm 1 mps 757 mmHg 56%
    01:00 +13°C° 0 mm 1 mps 757 mmHg 59%
    02:00 +12°C° 0 mm 1 mps 757 mmHg 61%
    03:00 +12°C° 0 mm 1 mps 757 mmHg 62%
    04:00 +11°C° 0 mm 1 mps 756 mmHg 62%
    05:00 +12°C° 0 mm 1 mps 756 mmHg 62%
    06:00 +12°C° 0 mm 1 mps 757 mmHg 61%
    07:00 +12°C° 0 mm 1 mps 757 mmHg 60%
    08:00 +13°C° 0 mm 1 mps 757 mmHg 56%
    09:00 +15°C° 0 mm 1 mps 757 mmHg 51%
    10:00 +16°C° 0 mm 1 mps 757 mmHg 45%
    11:00 +18°C° 0 mm 1 mps 757 mmHg 43%
    12:00 +17°C° 0 mm 2 mps 757 mmHg 40%
    13:00 +18°C° 0 mm 2 mps 757 mmHg 38%
    14:00 +18°C° 0.2 mm 2 mps 757 mmHg 39%
    15:00 +17°C° 0.2 mm 2 mps 757 mmHg 40%
    16:00 +17°C° 0.2 mm 2 mps 756 mmHg 41%
    17:00 +17°C° 0.2 mm 2 mps 757 mmHg 44%
    18:00 +16°C° 0.2 mm 2 mps 757 mmHg 47%
    19:00 +16°C° 0.2 mm 2 mps 757 mmHg 50%
    20:00 +16°C° 0 mm 2 mps 757 mmHg 52%
    21:00 +15°C° 0 mm 1 mps 757 mmHg 54%
    22:00 +15°C° 0 mm 1 mps 757 mmHg 56%
    23:00 +14°C° 0 mm 1 mps 757 mmHg 57%

    Tomorrow, 24 March, Sunday

    Time Temperature Precipitation Wind Pressure Humidity
    00:00 +14°C° 0 mm 1 mps 757 mmHg 58%
    01:00 +13°C° 0 mm 1 mps 757 mmHg 60%
    02:00 +13°C° 0 mm 1 mps 757 mmHg 59%
    03:00 +13°C° 0 mm 1 mps 757 mmHg 58%
    04:00 +13°C° 0 mm 2 mps 757 mmHg 57%
    05:00 +13°C° 0 mm 2 mps 757 mmHg 57%
    06:00 +13°C° 0 mm 2 mps 757 mmHg 56%
    07:00 +12°C° 0 mm 3 mps 757 mmHg 56%
    08:00 +14°C° 0 mm 3 mps 757 mmHg 50%
    09:00 +15°C° 0 mm 4 mps 757 mmHg 44%
    10:00 +17°C° 0 mm 5 mps 757 mmHg 39%
    11:00 +19°C° 0 mm 5 mps 757 mmHg 36%
    12:00 +19°C° 0 mm 5 mps 756 mmHg 33%
    13:00 +20°C° 0 mm 5 mps 756 mmHg 30%
    14:00 +20°C° 0 mm 5 mps 756 mmHg 28%
    15:00 +21°C° 0 mm 4 mps 755 mmHg 27%
    16:00 +21°C° 0 mm 4 mps 755 mmHg 25%
    17:00 +20°C° 0 mm 4 mps 755 mmHg 28%
    18:00 +19°C° 0 mm 3 mps 755 mmHg 30%
    19:00 +18°C° 0 mm 3 mps 754 mmHg 32%
    20:00 +18°C° 0 mm 3 mps 754 mmHg 35%
    21:00 +17°C° 0 mm 4 mps 755 mmHg 37%
    22:00 +15°C° 0 mm 4 mps 755 mmHg 40%
    23:00 +15°C° 0 mm 4 mps 755 mmHg 42%

    Day after tomorrow, 25 March, Monday

    Time Temperature Precipitation Wind Pressure Humidity
    00:00 +14°C° 0 mm 4 mps 754 mmHg 43%
    01:00 +14°C° 0 mm 4 mps 754 mmHg 45%
    02:00 +14°C° 0 mm 4 mps 754 mmHg 46%
    03:00 +13°C° 0 mm 4 mps 754 mmHg 47%
    04:00 +13°C° 0 mm 4 mps 754 mmHg 48%
    05:00 +13°C° 0 mm 4 mps 754 mmHg 49%
    06:00 +13°C° 0 mm 4 mps 754 mmHg 49%
    07:00 +13°C° 0 mm 4 mps 754 mmHg 50%
    08:00 +15°C° 0 mm 5 mps 753 mmHg 44%
    09:00 +17°C° 0 mm 5 mps 753 mmHg 38%
    10:00 +20°C° 0 mm 6 mps 753 mmHg 32%
    11:00 +21°C° 0 mm 6 mps 753 mmHg 29%
    12:00 +22°C° 0 mm 5 mps 752 mmHg 25%
    13:00 +25°C° 0 mm 5 mps 752 mmHg 22%
    14:00 +25°C° 0 mm 5 mps 751 mmHg 22%
    15:00 +26°C° 0 mm 5 mps 750 mmHg 21%
    16:00 +26°C° 0 mm 5 mps 750 mmHg 21%
    17:00 +25°C° 0 mm 5 mps 750 mmHg 23%
    18:00 +23°C° 0 mm 4 mps 749 mmHg 26%
    19:00 +22°C° 0 mm 4 mps 749 mmHg 28%
    20:00 +22°C° 0 mm 4 mps 749 mmHg 29%
    21:00 +21°C° 0 mm 4 mps 749 mmHg 30%
    22:00 +21°C° 0 mm 4 mps 749 mmHg 31%
    23:00 +21°C° 0 mm 3 mps 749 mmHg 34%

    26 March, Tuesday

    Time Temperature Precipitation Wind Pressure Humidity
    00:00 +20°C° 0 mm 3 mps 748 mmHg 36%
    01:00 +20°C° 0 mm 3 mps 748 mmHg 38%
    02:00 +19°C° 0 mm 3 mps 748 mmHg 40%
    03:00 +19°C° 0 mm 3 mps 748 mmHg 42%
    04:00 +18°C° 0 mm 3 mps 748 mmHg 44%
    05:00 +18°C° 0 mm 3 mps 748 mmHg 46%
    06:00 +17°C° 0 mm 3 mps 749 mmHg 48%
    07:00 +17°C° 0 mm 4 mps 749 mmHg 49%
    08:00 +17°C° 0 mm 4 mps 750 mmHg 49%
    09:00 +17°C° 0 mm 3 mps 750 mmHg 49%
    10:00 +17°C° 0 mm 3 mps 751 mmHg 50%
    11:00 +15°C° 0.6 mm 4 mps 751 mmHg 55%
    12:00 +14°C° 0.6 mm 4 mps 751 mmHg 61%
    13:00 +13°C° 0.6 mm 4 mps 751 mmHg 67%
    14:00 +14°C° 0 mm 4 mps 751 mmHg 62%
    15:00 +15°C° 0 mm 4 mps 751 mmHg 58%
    16:00 +17°C° 0 mm 4 mps 752 mmHg 54%
    17:00 +15°C° 0 mm 4 mps 752 mmHg 56%
    18:00 +14°C° 0 mm 4 mps 753 mmHg 58%
    19:00 +13°C° 0 mm 4 mps 753 mmHg 60%
    20:00 +12°C° 0 mm 4 mps 753 mmHg 64%
    21:00 +11°C° 0 mm 4 mps 754 mmHg 67%
    22:00 +10°C° 0 mm 4 mps 754 mmHg 70%
    23:00 +10°C° 0 mm 4 mps 754 mmHg 72%

    27 March, Wednesday

    Time Temperature Precipitation Wind Pressure Humidity
    00:00 +10°C° 0 mm 4 mps 753 mmHg 74%
    01:00 +8°C° 0 mm 4 mps 753 mmHg 76%
    02:00 +8°C° 0 mm 4 mps 753 mmHg 77%
    03:00 +8°C° 0 mm 4 mps 753 mmHg 78%
    04:00 +8°C° 0 mm 4 mps 752 mmHg 79%
    05:00 +10°C° 0 mm 4 mps 753 mmHg 79%
    06:00 +10°C° 0 mm 3 mps 753 mmHg 79%
    07:00 +11°C° 0 mm 3 mps 753 mmHg 80%
    08:00 +12°C° 0 mm 3 mps 753 mmHg 77%
    09:00 +12°C° 0 mm 3 mps 753 mmHg 75%
    10:00 +13°C° 0 mm 3 mps 753 mmHg 73%
    11:00 +14°C° 0.5 mm 2 mps 752 mmHg 74%
    12:00 +14°C° 0.5 mm 2 mps 752 mmHg 75%
    13:00 +15°C° 0.5 mm 1 mps 752 mmHg 76%
    14:00 +14°C° 1.3 mm 1 mps 751 mmHg 79%
    15:00 +14°C° 1.3 mm 2 mps 751 mmHg 82%
    16:00 +14°C° 1.3 mm 2 mps 751 mmHg 84%
    17:00 +14°C° 0.3 mm 2 mps 751 mmHg 85%
    18:00 +14°C° 0.3 mm 2 mps 751 mmHg 86%
    19:00 +14°C° 0.3 mm 2 mps 751 mmHg 86%
    20:00 +13°C° 0 mm 2 mps 751 mmHg 87%
    21:00 +12°C° 0 mm 3 mps 751 mmHg 87%
    22:00 +11°C° 0 mm 3 mps 751 mmHg 87%
    23:00 +11°C° 0 mm 3 mps 751 mmHg 87%

    28 March, Thursday

    Time Temperature Precipitation Wind Pressure Humidity
    00:00 +11°C° 0 mm 3 mps 751 mmHg 86%
    01:00 +10°C° 0 mm 3 mps 750 mmHg 85%
    02:00 +10°C° 0.8 mm 4 mps 751 mmHg 85%
    03:00 +9°C° 0.8 mm 5 mps 751 mmHg 86%
    04:00 +9°C° 0.8 mm 6 mps 751 mmHg 86%
    05:00 +10°C° 0.1 mm 6 mps 751 mmHg 85%
    06:00 +10°C° 0.1 mm 6 mps 751 mmHg 84%
    07:00 +10°C° 0.1 mm 6 mps 752 mmHg 83%
    08:00 +11°C° 0 mm 6 mps 752 mmHg 78%
    09:00 +11°C° 0 mm 6 mps 752 mmHg 74%
    10:00 +12°C° 0 mm 7 mps 753 mmHg 70%
    11:00 +12°C° 0.1 mm 7 mps 753 mmHg 69%
    12:00 +12°C° 0.1 mm 7 mps 753 mmHg 68%
    13:00 +12°C° 0.1 mm 7 mps 753 mmHg 67%
    14:00 +14°C° 0 mm 7 mps 753 mmHg 65%
    15:00 +14°C° 0 mm 6 mps 753 mmHg 63%
    16:00 +14°C° 0 mm 6 mps 754 mmHg 61%
    17:00 +13°C° 0 mm 5 mps 754 mmHg 63%
    18:00 +13°C° 0 mm 5 mps 755 mmHg 65%
    19:00 +12°C° 0 mm 4 mps 755 mmHg 66%
    20:00 +11°C° 0 mm 4 mps 755 mmHg 69%
    21:00 +11°C° 0 mm 3 mps 756 mmHg 72%
    22:00 +10°C° 0 mm 3 mps 756 mmHg 74%
    23:00 +10°C° 0 mm 3 mps 756 mmHg 76%
    Show more